User: anonymous   Login
Location: Unspecified
(0.0000°N, 0.0000°E)
Time: 08:20:04
(UTC+00:00)
Language:

ASGARDIA 1 - Orbit

View from above orbital plane
View from above orbital plane
View from above satellite
View from above satellite

Ground track
Ground track

The orbit data is extracted from the following two-line orbital elements,

1 43049U 17071N   19050.19038109  .00002318  00000-0  66056-4 0  9993
2 43049  51.6386 276.4029 0003131 103.4303 256.7031 15.40498395 67626
Epoch (UTC): 19 February 2019 04:34:08
Eccentricity: 0.0003131
inclination: 51.6386°
perigee height: 442 km
apogee height: 447 km
right ascension of ascending node: 276.4029°
argument of perigee: 103.4303°
revolutions per day: 15.40498395
mean anomaly at epoch: 256.7031°
orbit number at epoch: 6762

The dashed part of the orbit path shows where the satellite is in the earth's shadow,  

DLR